Flag for USA Weather for the Past 2 Weeks in Furnace Creek (Death Valley), California, USA

Now
87 °F

Sunny.


Feels Like: 84 °F
Forecast: 64 / 100 °F
Wind: 20 mph from South

Location: Desert Rock Airport

Current Time: May 4, 2016 at 3:59:28 PM

Latest Report: May 4, 2016 at 2:53 PM


Visibility: 10 mi

Pressure: 29.75 "Hg

Humidity: 13%

Dew Point: 30 °F

Location of Furnace Creek (Death Valley)Location

Historic Weather in Furnace Creek (Death Valley) — Graph

°F

Furnace Creek (Death Valley) Temperature Yesterday

Maximum temperature yesterday: 80 °F (at 4:53 PM)
Minimum temperature yesterday: 51 °F (at 4:53 AM)
Average temperature yesterday: 67 °F

High & Low Weather Summary for the Past Weeks

 TemperatureHumidityPressure
High86 °F (Apr 21, 3:53 PM)93% (Apr 28, 4:53 AM)30.05 "Hg (Apr 28, 4:53 AM)
Low42 °F (Apr 29, 5:53 AM)5% (Apr 20, 2:53 PM)29.52 "Hg (Apr 24, 11:53 PM)
Average62 °F36%29.78 "Hg
* Reported Apr 19 10:53 AM — May 4 10:53 AM, Furnace Creek (Death Valley), Weather by CustomWeather, © 2016

Note: Actual official high and low records may vary slightly from our data, if they occured in-between our weather recording intervals... More about our weather records

Advertising

Furnace Creek (Death Valley) Weather History for the Previous 24 Hours

Scroll right to see more
 ConditionsComfort  
Time TempWeatherWind HumidityBarometerVisibility
10:53 AM
Wed, May 4
79 °FBroken clouds.8 mph19%29.84 "Hg10 mi
9:53 AM77 °FPartly sunny.13 mph20%29.85 "Hg10 mi
8:53 AM72 °FPartly sunny.No wind28%29.87 "Hg10 mi
7:53 AM67 °FSunny.3 mph33%29.88 "Hg10 mi
6:53 AM60 °FSunny.3 mph52%29.87 "Hg10 mi
5:53 AM54 °FClear.No wind57%29.87 "Hg10 mi
4:53 AM55 °FClear.No wind55%29.87 "Hg10 mi
3:53 AM57 °FClear.No wind53%29.88 "Hg10 mi
2:53 AM56 °FClear.No wind55%29.88 "Hg10 mi
1:53 AM60 °FClear.No wind42%29.88 "Hg10 mi
12:53 AM62 °FClear.8 mph39%29.89 "Hg10 mi
11:53 PM
Tue, May 3
62 °FClear.7 mph39%29.90 "Hg10 mi
10:53 PM65 °FClear.3 mph33%29.89 "Hg10 mi
9:53 PM67 °FClear.5 mph27%29.90 "Hg10 mi
8:53 PM68 °FClear.No wind27%29.89 "Hg10 mi
7:53 PM74 °FSunny.7 mph14%29.88 "Hg10 mi
6:53 PM77 °FSunny.14 mph11%29.88 "Hg10 mi
5:53 PM79 °FSunny.9 mph14%29.89 "Hg10 mi
4:53 PM80 °FSunny.13 mph15%29.89 "Hg10 mi
3:53 PM79 °FSunny.10 mph16%29.91 "Hg10 mi
Weather by CustomWeather, © 2016

See weather overviewHow to use our weather pages